Location: La Silve
(44.2414°N, 5.8889°E)
Time: 09:24:19
(UTC+00:00)

Meteor 1-5 Rocket - Pass Details

Date: 01 December 2020
Orbit: 788 x 916 km, 81.2° (Epoch: 25 January)

Event Time Altitude Azimuth Distance (km) Brightness Sun altitude
Rises 17:53:44 0° 350° (N) 3,547 7.4 -20.0°
Reaches altitude 10° 17:56:15 10° 351° (N) 2,590 6.7 -20.4°
Maximum altitude 18:02:11 84° 79° (E) 895 4.2 -21.5°
Drops below altitude 10° 18:07:53 10° 169° (S) 2,496 6.6 -22.5°
Sets 18:10:16 0° 170° (S) 3,409 7.3 -22.9°
